Location: Asheville, NC
(35.6000°N, 82.5500°W)
Time: 05:20:43
(UTC-05:00)

CUTE 1.7 + AOD 2 - Pass Details

Date: 15 February 2018
Orbit: 594 x 614 km, 97.6° (Epoch: 17 February)

Event Time Altitude Azimuth Distance (km) Brightness Sun altitude
Rises 19:21:56 0° 194° (SSW) 2,829 ? -14.8°
Reaches altitude 10° 19:24:22 10° 207° (SSW) 1,928 ? -15.3°
Maximum altitude 19:27:53 26° 264° (W) 1,186 ? -16.0°
Drops below altitude 10° 19:31:25 10° 321° (NW) 1,932 ? -16.7°
Sets 19:33:52 0° 334° (NNW) 2,836 ? -17.2°
